Location: La Brionne
(46.1728°N, 1.7849°E)
Time: 17:45:17
(UTC+00:00)

USA 215 - Pass Details

Date: 24 October 2021
Orbit: 1099 x 1109 km, 123.0° (Epoch: 20 November)

Event Time Altitude Azimuth Distance (km) Brightness Sun altitude
Exits shadow 19:08:35 23° 38° (NE) 2,158 4.5 -24.4°
Maximum altitude 19:12:06 40° 345° (NNW) 1,571 4.2 -25.0°
Drops below altitude 10° 19:18:05 10° 279° (W) 2,964 6.6 -26.1°
Sets 19:20:43 0° 272° (W) 3,922 7.4 -26.5°
